STARLINK-31203, 58869

Orbit data source: Space-Track

STARLINK-31203, 58869 is a payload satellite owned by SpaceX/Seattle (US) in LEO that was launched on Mon, 29 Jan 2024 UTC via an FALCON 9 launch vehicle from the Air Force Eastern Test Range (AFETR). Payload-class satellites include a variety of spacecraft equipped with specific instruments for various scientific and technological missions. These include communications satellites like Starlink; space stations such as the ISS; scientific satellites like the Hubble; Earth observation satellites from companies like Planet Labs, Umbra, and HawkEye 360; GPS; miniature CubeSats for education and research; and military/defense satellites.

Loading next visibility...
Identifier
58869, 2024-019S
Orbit
LEO
Country
Flag of USUS
Related business
Manufacturer
SpaceX/Seattle
Mission
Operational Commercial Communications
Bus & Motor
STARLINK V2M, Unknown motor
Mass
730 kg wet, ~700 kg dry
Launch date (UTC)
2024-01-29 (2 years ago)
Launch vehicle
FALCON 9
Launch site
Air Force Eastern Test Range (AFETR)
Object type
Payload
Rocket body
Debris
Shape & HBR
Box + 2 Pan, 17.7 m
Radar Cross Section
33.884 m², Large (>1 m²)

Expand to show TLE details & history
Last TLE update: 3 days ago

TLE from 3 days ago
0 STARLINK-31203
1 58869U 24019S   26170.03570612  .00002204  00000-0  89620-4 0  9999
2 58869  43.0001  32.9452 0001190 282.3992  77.6727 15.27568811134623
Epoch: 2026-06-19T00:51Z
TLE epoch observation values (Epoch: 2026-06-19T00:51:25.008Z)
Latitude
0.00001°
Longitude
112.82055°
Altitude
482.684 km
Speed
7.626 km/s
True Right ascension
02h 11m 46s
True Declination
0° 00' 00"
Sunlit
Object was in daylight at epoch
Visualization orbit readout
Latitude
Unknown
Longitude
Unknown
Altitude
Unknown
Speed
Unknown
Apparent Right ascension
Unknown
Apparent Declination
Unknown
Sunlit
N/A
Visualization observer readout
Local Sidereal Time
21:25:30
Azimuth
Unknown
Elevation
Unknown
Doppler factor
Unknown
Orbital elements
Apogee altitude
485.844 km
Perigee altitude
484.211 km
Semi-major axis
6,863.165 km
Eccentricity
0.00012
Inclination
43.0001°
RAAN
32.9452°
Arg. of periapsis
282.3992°
True anomaly
77.68602°
Mean anomaly
77.6727°
Eccentric anomaly
77.67936°
Mean motion
3.8173 °/min
Orbital period
94.31 mins
BSTAR
0.00008962
Loading maneuver chart data...
Computing Atmospheric mass density...
Loading historical data...
Loading historical data...
Loading historical data...
Loading historical data...
Loading historical data...
Loading historical data...
Loading historical data...

Documentation

Showing up to 5 results
|